Claremore, OK

8:09 PM CDT on September 25, 2016 (GMT -0500)
Claremore Regional

Weather History for KGCM - March, 2013

Change the Weather History Date:

Monday, March 25, 2013

  Actual Average (KTUL) Record (KTUL)
Temperature  
Mean Temperature 32 °F 54 °F  
Max Temperature 37 °F 65 °F 88 °F (1910)
Min Temperature 26 °F 43 °F 18 °F (1955)
Degree Days  
Heating Degree Days 34 12  
Month to date heating degree days 374  
Since 1 July heating degree days 3285  
Cooling Degree Days 0 1  
Month to date cooling degree days 4  
Year to date cooling degree days 5  
Moisture  
Dew Point 21 °F    
Average Humidity 65    
Maximum Humidity 86    
Minimum Humidity 45    
Precipitation  
Precipitation 0.00 in 0.11 in 3.18 in (1920)
Month to date precipitation 2.60  
Year to date precipitation 6.11  
Sea Level Pressure  
Sea Level Pressure 30.30 in    
Wind  
Wind Speed 9 mph (NW)    
Max Wind Speed 17 mph    
Max Gust Speed 24 mph    
Visibility 10 miles    
Events      
T = Trace of Precipitation, MM = Missing Value Source: NWS Daily Summary

Daily Weather History Graph

Daily Weather History Graph

Search for Another Location

Airport or City:

Trip Planner

Search our weather history database for the weather conditions in past years. The results will help you decide how hot, cold, wet, or windy it might be!

Date:

Astronomy

Mar. 25, 2013 Rise Set
Actual Time 7:17 AM CDT 7:38 PM CDT
Civil Twilight 6:52 AM CDT 8:04 PM CDT
Nautical Twilight 6:21 AM CDT 8:34 PM CDT
Astronomical Twilight 5:51 AM CDT 9:04 PM CDT
Moon 6:12 PM CDT (3/25) 5:59 AM CDT (3/25)
Length of Visible Light 13h 11m
Length of Day
12h 20m
Waxing Gibbous, 96% of the Moon is Illuminated
Mar 25
Waxing Gibbous
Mar 27
Full
Apr 2
Last Quarter
Apr 10
New
Apr 18
First Quarter

Hourly Weather History & Observations

Time (CDT) Temp. Windchill Dew Point Humidity Pressure Visibility Wind Dir Wind Speed Gust Speed Precip Events Conditions
12:15 AM 28.4 °F 22.2 °F 21.2 °F 74% 30.20 in 10.0 mi WNW 5.8 mph - N/A   Clear
12:35 AM 28.4 °F 20.4 °F 21.2 °F 74% 30.21 in 10.0 mi West 8.1 mph - N/A   Clear
1:15 AM 28.4 °F 22.2 °F 21.2 °F 74% 30.22 in 10.0 mi WNW 5.8 mph - N/A   Clear
1:35 AM 28.4 °F 21.2 °F 21.2 °F 74% 30.21 in 10.0 mi NW 6.9 mph - N/A   Scattered Clouds
1:55 AM 30.2 °F 23.4 °F 23.0 °F 75% 30.20 in 10.0 mi NW 6.9 mph - N/A   Mostly Cloudy
2:15 AM 30.2 °F 22.6 °F 23.0 °F 75% 30.20 in 10.0 mi NW 8.1 mph - N/A   Mostly Cloudy
2:35 AM 30.2 °F 22.6 °F 23.0 °F 75% 30.20 in 10.0 mi WNW 8.1 mph - N/A   Mostly Cloudy
2:55 AM 30.2 °F 24.3 °F 23.0 °F 75% 30.20 in 10.0 mi WNW 5.8 mph - N/A   Mostly Cloudy
3:15 AM 30.2 °F 23.4 °F 23.0 °F 75% 30.20 in 10.0 mi WNW 6.9 mph - N/A   Scattered Clouds
3:35 AM 30.2 °F 22.6 °F 23.0 °F 75% 30.21 in 10.0 mi NW 8.1 mph - N/A   Scattered Clouds
4:15 AM 28.4 °F 21.2 °F 23.0 °F 80% 30.20 in 10.0 mi WNW 6.9 mph - N/A   Clear
4:35 AM 28.4 °F 21.2 °F 23.0 °F 80% 30.20 in 10.0 mi WNW 6.9 mph - N/A   Scattered Clouds
4:55 AM 28.4 °F 21.2 °F 23.0 °F 80% 30.21 in 10.0 mi WNW 6.9 mph - N/A   Scattered Clouds
5:15 AM 26.6 °F 19.1 °F 23.0 °F 86% 30.21 in 10.0 mi WNW 6.9 mph - N/A   Clear
5:35 AM 26.6 °F 19.1 °F 23.0 °F 86% 30.22 in 10.0 mi WNW 6.9 mph - N/A   Clear
5:55 AM 26.6 °F 19.1 °F 23.0 °F 86% 30.22 in 10.0 mi WNW 6.9 mph - N/A   Clear
6:15 AM 26.6 °F 18.2 °F 23.0 °F 86% 30.22 in 10.0 mi WNW 8.1 mph - N/A   Clear
6:35 AM 26.6 °F 18.2 °F 23.0 °F 86% 30.23 in 10.0 mi NW 8.1 mph - N/A   Clear
6:55 AM 26.6 °F 19.1 °F 21.2 °F 80% 30.23 in 10.0 mi NW 6.9 mph - N/A   Clear
7:15 AM 28.4 °F 19.1 °F 21.2 °F 74% 30.24 in 10.0 mi NNW 10.4 mph 16.1 mph N/A   Clear
7:35 AM 28.4 °F 19.1 °F 19.4 °F 69% 30.25 in 10.0 mi NW 10.4 mph - N/A   Clear
7:55 AM 28.4 °F 19.1 °F 19.4 °F 69% 30.26 in 10.0 mi NW 10.4 mph 18.4 mph N/A   Clear
8:15 AM 28.4 °F 19.7 °F 19.4 °F 69% 30.27 in 10.0 mi NW 9.2 mph 18.4 mph N/A   Clear
8:35 AM 30.2 °F 19.8 °F 19.4 °F 64% 30.28 in 10.0 mi NW 13.8 mph 19.6 mph N/A   Clear
8:55 AM 30.2 °F 19.8 °F 19.4 °F 64% 30.28 in 10.0 mi NW 13.8 mph 21.9 mph N/A   Clear
9:15 AM 30.2 °F 20.2 °F 19.4 °F 64% 30.30 in 10.0 mi NW 12.7 mph 23.0 mph N/A   Scattered Clouds
9:35 AM 30.2 °F 20.2 °F 21.2 °F 69% 30.30 in 10.0 mi NW 12.7 mph 23.0 mph N/A   Mostly Cloudy
10:15 AM 30.2 °F 18.5 °F 21.2 °F 69% 30.32 in 10.0 mi NW 17.3 mph 21.9 mph N/A   Overcast
10:35 AM 32.0 °F 21.6 °F 21.2 °F 64% 30.33 in 10.0 mi NW 15.0 mph 21.9 mph N/A   Overcast
10:55 AM 32.0 °F 23.0 °F 21.2 °F 64% 30.33 in 10.0 mi NNW 11.5 mph 18.4 mph N/A   Overcast
11:15 AM 32.0 °F 24.2 °F 21.2 °F 64% 30.34 in 10.0 mi NNW 9.2 mph 20.7 mph N/A   Overcast
11:55 AM 32.0 °F 23.0 °F 21.2 °F 64% 30.35 in 10.0 mi NW 11.5 mph 20.7 mph N/A   Overcast
12:15 PM 32.0 °F 22.5 °F 21.2 °F 64% 30.35 in 10.0 mi NNW 12.7 mph 21.9 mph N/A   Overcast
12:35 PM 33.8 °F 23.9 °F 21.2 °F 60% 30.35 in 10.0 mi NW 15.0 mph 21.9 mph N/A   Overcast
12:55 PM 33.8 °F 24.8 °F 21.2 °F 60% 30.35 in 10.0 mi NW 12.7 mph 24.2 mph N/A   Overcast
1:15 PM 33.8 °F 25.3 °F 21.2 °F 60% 30.35 in 10.0 mi NW 11.5 mph 18.4 mph N/A   Overcast
1:35 PM 33.8 °F 24.3 °F 21.2 °F 60% 30.34 in 10.0 mi NW 13.8 mph 18.4 mph N/A   Overcast
2:15 PM 33.8 °F 24.3 °F 21.2 °F 60% 30.34 in 10.0 mi NW 13.8 mph 18.4 mph N/A   Overcast
2:35 PM 35.6 °F 28.0 °F 21.2 °F 56% 30.34 in 10.0 mi NW 10.4 mph 18.4 mph N/A   Mostly Cloudy
2:55 PM 35.6 °F 26.6 °F 23.0 °F 60% 30.33 in 10.0 mi WNW 13.8 mph 21.9 mph N/A   Scattered Clouds
3:15 PM 35.6 °F 29.2 °F 23.0 °F 60% 30.33 in 10.0 mi NW 8.1 mph 18.4 mph N/A   Clear
3:35 PM 35.6 °F 27.5 °F 21.2 °F 56% 30.33 in 10.0 mi NW 11.5 mph - N/A   Scattered Clouds
4:15 PM 37.4 °F 28.5 °F 19.4 °F 48% 30.32 in 10.0 mi NW 15.0 mph 21.9 mph N/A   Clear
4:35 PM 37.4 °F 30.3 °F 19.4 °F 48% 30.32 in 10.0 mi NNW 10.4 mph 18.4 mph N/A   Clear
4:55 PM 37.4 °F 29.3 °F 19.4 °F 48% 30.32 in 10.0 mi NW 12.7 mph 20.7 mph N/A   Scattered Clouds
5:15 PM 37.4 °F 30.3 °F 17.6 °F 45% 30.32 in 10.0 mi NW 10.4 mph 19.6 mph N/A   Scattered Clouds
5:35 PM 37.4 °F 28.2 °F 17.6 °F 45% 30.33 in 10.0 mi NW 16.1 mph 20.7 mph N/A   Scattered Clouds
5:55 PM 37.4 °F 28.9 °F 17.6 °F 45% 30.33 in 10.0 mi NNW 13.8 mph 19.6 mph N/A   Clear
6:15 PM 35.6 °F 26.6 °F 19.4 °F 52% 30.33 in 10.0 mi NNW 13.8 mph 19.6 mph N/A   Scattered Clouds
6:35 PM 35.6 °F 27.5 °F 19.4 °F 52% 30.34 in 10.0 mi NNW 11.5 mph 19.6 mph N/A   Scattered Clouds
6:55 PM 35.6 °F 26.6 °F 19.4 °F 52% 30.35 in 10.0 mi NNW 13.8 mph 19.6 mph N/A   Clear
7:15 PM 33.8 °F 25.8 °F 19.4 °F 56% 30.35 in 10.0 mi NNW 10.4 mph - N/A   Scattered Clouds
7:35 PM 33.8 °F 25.3 °F 19.4 °F 56% 30.36 in 10.0 mi NNW 11.5 mph 18.4 mph N/A   Scattered Clouds
7:55 PM 33.8 °F 25.3 °F 19.4 °F 56% 30.36 in 10.0 mi North 11.5 mph 17.3 mph N/A   Scattered Clouds
8:15 PM 33.8 °F 26.4 °F 19.4 °F 56% 30.37 in 10.0 mi NNW 9.2 mph - N/A   Scattered Clouds
8:35 PM 33.8 °F 26.4 °F 19.4 °F 56% 30.38 in 10.0 mi NNW 9.2 mph - N/A   Mostly Cloudy
8:55 PM 33.8 °F 27.0 °F 21.2 °F 60% 30.38 in 10.0 mi NNW 8.1 mph - N/A   Mostly Cloudy
9:15 PM 33.8 °F 26.4 °F 21.2 °F 60% 30.39 in 10.0 mi NNW 9.2 mph - N/A   Mostly Cloudy
9:35 PM 33.8 °F 29.6 °F 21.2 °F 60% 30.39 in 10.0 mi NNW 4.6 mph - N/A   Overcast
9:55 PM 32.0 °F 26.4 °F 21.2 °F 64% 30.40 in 10.0 mi NNW 5.8 mph - N/A   Overcast
10:15 PM 32.0 °F 27.5 °F 21.2 °F 64% 30.40 in 10.0 mi NNW 4.6 mph - N/A   Mostly Cloudy
10:35 PM 32.0 °F 28.7 °F 21.2 °F 64% 30.41 in 10.0 mi NNW 3.5 mph - N/A   Scattered Clouds
10:55 PM 32.0 °F 28.7 °F 21.2 °F 64% 30.41 in 10.0 mi NNW 3.5 mph - N/A   Clear
11:15 PM 32.0 °F 28.7 °F 21.2 °F 64% 30.41 in 10.0 mi NNW 3.5 mph - N/A   Clear
11:35 PM 30.2 °F 25.4 °F 21.2 °F 69% 30.42 in 10.0 mi NW 4.6 mph - N/A   Clear
11:55 PM 30.2 °F 25.4 °F 21.2 °F 69% 30.42 in 10.0 mi NW 4.6 mph - N/A   Clear